Time,TemperatureF,DewpointF,PressureIn,WindDirection,WindDirectionDegrees,WindSpeedMPH,WindSpeedGustMPH,Humidity,HourlyPrecipIn,Conditions,Clouds,dailyrainin,SoftwareType,DateUTC
2013-10-14 00:04:00,44.8,39.0,30.34,NE,43,0.0,-999.0,81,-99.99,,,0.00,weatherlink.com 1.10,2013-10-14 05:04:00,
2013-10-14 00:19:00,45.1,40.0,30.34,NE,42,0.0,-999.0,81,-99.99,,,0.00,weatherlink.com 1.10,2013-10-14 05:19:00,
2013-10-14 00:34:00,45.4,40.0,30.35,NE,42,0.0,-999.0,80,-99.99,,,0.00,weatherlink.com 1.10,2013-10-14 05:34:00,
2013-10-14 00:49:00,46.3,40.0,30.35,NNE,32,0.0,-999.0,79,-99.99,,,0.00,weatherlink.com 1.10,2013-10-14 05:49:00,
2013-10-14 01:05:00,46.5,40.0,30.35,NE,38,0.0,-999.0,79,-99.99,,,0.00,weatherlink.com 1.10,2013-10-14 06:05:00,
2013-10-14 01:20:00,46.7,41.0,30.35,NNE,32,0.0,-999.0,79,-99.99,,,0.00,weatherlink.com 1.10,2013-10-14 06:20:00,
2013-10-14 01:35:00,46.6,40.0,30.35,NNE,32,0.0,-999.0,79,-99.99,,,0.00,weatherlink.com 1.10,2013-10-14 06:35:00,
2013-10-14 01:50:00,47.1,41.0,30.36,NE,43,0.0,-999.0,79,-99.99,,,0.00,weatherlink.com 1.10,2013-10-14 06:50:00,
2013-10-14 02:05:00,47.5,41.0,30.35,East,93,0.0,-999.0,78,-99.99,,,0.00,weatherlink.com 1.10,2013-10-14 07:05:00,
2013-10-14 02:20:00,47.6,41.0,30.35,East,88,0.0,-999.0,78,-99.99,,,0.00,weatherlink.com 1.10,2013-10-14 07:20:00,
2013-10-14 02:35:00,47.3,41.0,30.35,East,88,0.0,-999.0,78,-99.99,,,0.00,weatherlink.com 1.10,2013-10-14 07:35:00,
2013-10-14 02:50:00,46.8,41.0,30.35,East,88,0.0,-999.0,79,-99.99,,,0.00,weatherlink.com 1.10,2013-10-14 07:50:00,
2013-10-14 03:05:00,45.7,40.0,30.35,East,88,0.0,-999.0,79,-99.99,,,0.00,weatherlink.com 1.10,2013-10-14 08:05:00,
2013-10-14 03:20:00,44.5,39.0,30.36,East,88,0.0,-999.0,81,-99.99,,,0.00,weatherlink.com 1.10,2013-10-14 08:20:00,
2013-10-14 03:35:00,43.3,39.0,30.36,East,88,0.0,-999.0,83,-99.99,,,0.00,weatherlink.com 1.10,2013-10-14 08:35:00,
2013-10-14 03:50:00,42.5,38.0,30.36,East,88,0.0,-999.0,85,-99.99,,,0.00,weatherlink.com 1.10,2013-10-14 08:50:00,
2013-10-14 04:05:00,41.8,38.0,30.36,East,88,0.0,-999.0,86,-99.99,,,0.00,weatherlink.com 1.10,2013-10-14 09:05:00,
2013-10-14 04:20:00,41.3,38.0,30.35,East,88,0.0,-999.0,87,-99.99,,,0.00,weatherlink.com 1.10,2013-10-14 09:20:00,
2013-10-14 04:35:00,40.9,38.0,30.35,East,88,0.0,-999.0,88,-99.99,,,0.00,weatherlink.com 1.10,2013-10-14 09:35:00,
2013-10-14 04:50:00,40.5,38.0,30.35,East,88,0.0,-999.0,89,-99.99,,,0.00,weatherlink.com 1.10,2013-10-14 09:50:00,
2013-10-14 05:05:00,40.2,37.0,30.35,East,88,0.0,-999.0,89,-99.99,,,0.00,weatherlink.com 1.10,2013-10-14 10:05:00,
2013-10-14 05:20:00,39.8,37.0,30.35,East,88,0.0,-999.0,89,-99.99,,,0.00,weatherlink.com 1.10,2013-10-14 10:20:00,
2013-10-14 05:35:00,39.6,37.0,30.35,East,88,0.0,-999.0,90,-99.99,,,0.00,weatherlink.com 1.10,2013-10-14 10:35:00,
2013-10-14 05:50:00,39.8,37.0,30.36,East,88,0.0,-999.0,91,-99.99,,,0.00,weatherlink.com 1.10,2013-10-14 10:50:00,
2013-10-14 06:05:00,39.4,37.0,30.36,East,88,0.0,-999.0,90,-99.99,,,0.00,weatherlink.com 1.10,2013-10-14 11:05:00,
2013-10-14 06:20:00,39.0,36.0,30.36,East,88,0.0,-999.0,90,-99.99,,,0.00,weatherlink.com 1.10,2013-10-14 11:20:00,
2013-10-14 06:35:00,38.8,36.0,30.35,East,88,0.0,-999.0,91,-99.99,,,0.00,weatherlink.com 1.10,2013-10-14 11:35:00,
2013-10-14 06:50:00,38.7,36.0,30.36,East,88,0.0,-999.0,91,-99.99,,,0.00,weatherlink.com 1.10,2013-10-14 11:50:00,
2013-10-14 07:06:00,38.7,36.0,30.36,East,88,0.0,-999.0,91,-99.99,,,0.00,weatherlink.com 1.10,2013-10-14 12:06:00,
2013-10-14 07:21:00,38.8,37.0,30.36,East,88,0.0,-999.0,92,-99.99,,,0.00,weatherlink.com 1.10,2013-10-14 12:21:00,
2013-10-14 07:36:00,39.2,37.0,30.36,East,88,0.0,-999.0,92,-99.99,,,0.00,weatherlink.com 1.10,2013-10-14 12:36:00,
2013-10-14 07:51:00,40.1,38.0,30.36,East,88,0.0,-999.0,93,-99.99,,,0.00,weatherlink.com 1.10,2013-10-14 12:51:00,
2013-10-14 08:06:00,41.6,40.0,30.36,East,88,0.0,-999.0,93,-99.99,,,0.00,weatherlink.com 1.10,2013-10-14 13:06:00,
2013-10-14 08:21:00,43.6,42.0,30.36,East,88,0.0,-999.0,92,-99.99,,,0.00,weatherlink.com 1.10,2013-10-14 13:21:00,
2013-10-14 08:36:00,46.5,44.0,30.35,East,88,0.0,-999.0,91,-99.99,,,0.00,weatherlink.com 1.10,2013-10-14 13:36:00,
2013-10-14 08:51:00,49.9,45.0,30.35,NE,52,0.0,-999.0,84,-99.99,,,0.00,weatherlink.com 1.10,2013-10-14 13:51:00,
2013-10-14 09:06:00,51.7,45.0,30.34,ENE,60,0.0,-999.0,79,-99.99,,,0.00,weatherlink.com 1.10,2013-10-14 14:06:00,
2013-10-14 09:21:00,52.5,45.0,30.34,ESE,111,0.0,-999.0,76,-99.99,,,0.00,weatherlink.com 1.10,2013-10-14 14:21:00,
2013-10-14 09:36:00,53.6,46.0,30.34,ESE,111,0.0,-999.0,76,-99.99,,,0.00,weatherlink.com 1.10,2013-10-14 14:36:00,
2013-10-14 09:51:00,55.1,46.0,30.34,NNE,27,0.0,-999.0,72,-99.99,,,0.00,weatherlink.com 1.10,2013-10-14 14:51:00,
2013-10-14 10:06:00,56.2,46.0,30.33,ESE,110,1.0,-999.0,69,-99.99,,,0.00,weatherlink.com 1.10,2013-10-14 15:06:00,
2013-10-14 10:21:00,57.1,46.0,30.33,SE,139,1.0,-999.0,67,-99.99,,,0.00,weatherlink.com 1.10,2013-10-14 15:21:00,
2013-10-14 10:36:00,58.4,45.0,30.32,ESE,121,3.0,-999.0,62,-99.99,,,0.00,weatherlink.com 1.10,2013-10-14 15:36:00,
2013-10-14 10:51:00,59.2,46.0,30.32,SE,131,4.0,-999.0,61,-99.99,,,0.00,weatherlink.com 1.10,2013-10-14 15:51:00,
2013-10-14 11:06:00,59.7,45.0,30.32,SE,133,0.0,-999.0,58,-99.99,,,0.00,weatherlink.com 1.10,2013-10-14 16:06:00,
2013-10-14 11:21:00,60.1,43.0,30.31,SE,144,3.0,-999.0,54,-99.99,,,0.00,weatherlink.com 1.10,2013-10-14 16:21:00,
2013-10-14 11:36:00,60.7,42.0,30.30,SE,127,9.0,-999.0,51,-99.99,,,0.00,weatherlink.com 1.10,2013-10-14 16:36:00,
2013-10-14 11:51:00,61.7,44.0,30.30,East,93,0.0,-999.0,52,-99.99,,,0.00,weatherlink.com 1.10,2013-10-14 16:51:00,
2013-10-14 12:07:00,62.6,43.0,30.29,ESE,120,0.0,-999.0,49,-99.99,,,0.00,weatherlink.com 1.10,2013-10-14 17:07:00,
2013-10-14 12:22:00,63.0,42.0,30.28,East,80,0.0,-999.0,47,-99.99,,,0.00,weatherlink.com 1.10,2013-10-14 17:22:00,
2013-10-14 12:37:00,63.9,42.0,30.27,SE,138,0.0,-999.0,45,-99.99,,,0.00,weatherlink.com 1.10,2013-10-14 17:37:00,
2013-10-14 12:52:00,64.7,42.0,30.25,ESE,121,2.0,-999.0,44,-99.99,,,0.00,weatherlink.com 1.10,2013-10-14 17:52:00,
2013-10-14 13:07:00,65.2,39.0,30.24,SSE,165,0.0,-999.0,39,-99.99,,,0.00,weatherlink.com 1.10,2013-10-14 18:07:00,
2013-10-14 13:22:00,65.2,41.0,30.24,South,190,0.0,-999.0,41,-99.99,,,0.00,weatherlink.com 1.10,2013-10-14 18:22:00,
2013-10-14 13:37:00,66.0,41.0,30.24,South,180,0.0,-999.0,41,-99.99,,,0.00,weatherlink.com 1.10,2013-10-14 18:37:00,
2013-10-14 13:52:00,67.4,42.0,30.23,SSE,150,0.0,-999.0,40,-99.99,,,0.00,weatherlink.com 1.10,2013-10-14 18:52:00,
2013-10-14 14:07:00,67.2,41.0,30.22,ESE,122,0.0,-999.0,39,-99.99,,,0.00,weatherlink.com 1.10,2013-10-14 19:07:00,
2013-10-14 14:22:00,67.0,41.0,30.21,ENE,59,0.0,-999.0,39,-99.99,,,0.00,weatherlink.com 1.10,2013-10-14 19:22:00,
2013-10-14 14:37:00,67.0,42.0,30.20,SSE,148,0.0,-999.0,40,-99.99,,,0.00,weatherlink.com 1.10,2013-10-14 19:37:00,
2013-10-14 14:52:00,68.1,41.0,30.20,SE,131,0.0,-999.0,38,-99.99,,,0.00,weatherlink.com 1.10,2013-10-14 19:52:00,
2013-10-14 15:07:00,67.5,41.0,30.19,SE,140,4.0,-999.0,38,-99.99,,,0.00,weatherlink.com 1.10,2013-10-14 20:07:00,
2013-10-14 15:22:00,67.8,41.0,30.18,SE,128,0.0,-999.0,38,-99.99,,,0.00,weatherlink.com 1.10,2013-10-14 20:22:00,
2013-10-14 15:42:00,68.2,41.0,30.18,SE,130,0.0,-999.0,38,-99.99,,,0.00,weatherlink.com 1.10,2013-10-14 20:42:00,
2013-10-14 15:52:00,68.3,42.0,30.18,SE,124,0.0,-999.0,38,-99.99,,,0.00,weatherlink.com 1.10,2013-10-14 20:52:00,
2013-10-14 16:07:00,68.4,42.0,30.18,East,91,0.0,-999.0,39,-99.99,,,0.00,weatherlink.com 1.10,2013-10-14 21:07:00,
2013-10-14 16:22:00,68.0,43.0,30.18,East,88,0.0,-999.0,40,-99.99,,,0.00,weatherlink.com 1.10,2013-10-14 21:22:00,
2013-10-14 16:37:00,67.1,42.0,30.16,SSE,153,0.0,-999.0,41,-99.99,,,0.00,weatherlink.com 1.10,2013-10-14 21:37:00,
2013-10-14 16:52:00,67.0,43.0,30.17,SE,126,2.0,-999.0,42,-99.99,,,0.00,weatherlink.com 1.10,2013-10-14 21:52:00,
2013-10-14 17:08:00,67.2,43.0,30.16,SE,127,0.0,-999.0,42,-99.99,,,0.00,weatherlink.com 1.10,2013-10-14 22:08:00,
2013-10-14 17:23:00,67.0,44.0,30.15,ESE,115,0.0,-999.0,43,-99.99,,,0.00,weatherlink.com 1.10,2013-10-14 22:23:00,
2013-10-14 17:38:00,66.2,43.0,30.16,ESE,115,0.0,-999.0,44,-99.99,,,0.00,weatherlink.com 1.10,2013-10-14 22:38:00,
2013-10-14 17:53:00,65.3,44.0,30.16,ESE,115,0.0,-999.0,46,-99.99,,,0.00,weatherlink.com 1.10,2013-10-14 22:53:00,
2013-10-14 18:08:00,64.2,44.0,30.16,ESE,115,0.0,-999.0,48,-99.99,,,0.00,weatherlink.com 1.10,2013-10-14 23:08:00,
2013-10-14 18:23:00,62.7,44.0,30.16,ESE,115,0.0,-999.0,51,-99.99,,,0.00,weatherlink.com 1.10,2013-10-14 23:23:00,
2013-10-14 18:38:00,61.1,44.0,30.17,ESE,115,0.0,-999.0,53,-99.99,,,0.00,weatherlink.com 1.10,2013-10-14 23:38:00,
2013-10-14 18:53:00,60.1,44.0,30.18,ESE,115,0.0,-999.0,56,-99.99,,,0.00,weatherlink.com 1.10,2013-10-14 23:53:00,
2013-10-14 19:08:00,59.0,44.0,30.17,ESE,115,0.0,-999.0,58,-99.99,,,0.00,weatherlink.com 1.10,2013-10-15 00:08:00,
2013-10-14 19:23:00,58.5,44.0,30.16,ESE,115,0.0,-999.0,60,-99.99,,,0.00,weatherlink.com 1.10,2013-10-15 00:23:00,
2013-10-14 19:38:00,57.7,44.0,30.16,ESE,115,0.0,-999.0,60,-99.99,,,0.00,weatherlink.com 1.10,2013-10-15 00:38:00,
2013-10-14 19:53:00,58.0,44.0,30.16,ESE,115,0.0,-999.0,59,-99.99,,,0.00,weatherlink.com 1.10,2013-10-15 00:53:00,
2013-10-14 20:08:00,57.7,44.0,30.16,ESE,115,0.0,-999.0,60,-99.99,,,0.00,weatherlink.com 1.10,2013-10-15 01:08:00,
2013-10-14 20:23:00,56.7,44.0,30.16,ESE,115,0.0,-999.0,62,-99.99,,,0.00,weatherlink.com 1.10,2013-10-15 01:23:00,
2013-10-14 20:38:00,55.0,43.0,30.16,ESE,115,0.0,-999.0,65,-99.99,,,0.00,weatherlink.com 1.10,2013-10-15 01:38:00,
2013-10-14 20:53:00,54.0,43.0,30.16,ESE,115,0.0,-999.0,67,-99.99,,,0.00,weatherlink.com 1.10,2013-10-15 01:53:00,
2013-10-14 21:23:00,54.0,44.0,30.15,ESE,111,0.0,-999.0,68,-99.99,,,0.00,weatherlink.com 1.10,2013-10-15 02:23:00,
2013-10-14 21:53:00,53.5,44.0,30.15,ESE,111,0.0,-999.0,70,-99.99,,,0.00,weatherlink.com 1.10,2013-10-15 02:53:00,
2013-10-14 22:08:00,53.1,44.0,30.15,ESE,111,0.0,-999.0,70,-99.99,,,0.00,weatherlink.com 1.10,2013-10-15 03:08:00,
2013-10-14 22:23:00,52.9,44.0,30.15,ESE,114,0.0,-999.0,71,-99.99,,,0.00,weatherlink.com 1.10,2013-10-15 03:23:00,
2013-10-14 22:38:00,52.8,44.0,30.14,SE,126,3.0,-999.0,72,-99.99,,,0.00,weatherlink.com 1.10,2013-10-15 03:38:00,
2013-10-14 22:53:00,52.4,44.0,30.14,SE,126,1.0,-999.0,73,-99.99,,,0.00,weatherlink.com 1.10,2013-10-15 03:53:00,
2013-10-14 23:08:00,52.2,44.0,30.13,SE,127,0.0,-999.0,74,-99.99,,,0.00,weatherlink.com 1.10,2013-10-15 04:08:00,
2013-10-14 23:23:00,52.2,44.0,30.13,ESE,121,0.0,-999.0,74,-99.99,,,0.00,weatherlink.com 1.10,2013-10-15 04:23:00,
2013-10-14 23:38:00,52.2,44.0,30.12,SE,138,4.0,-999.0,73,-99.99,,,0.00,weatherlink.com 1.10,2013-10-15 04:38:00,
2013-10-14 23:53:00,52.0,44.0,30.12,SE,136,0.0,-999.0,74,-99.99,,,0.00,weatherlink.com 1.10,2013-10-15 04:53:00,